Wind_Speed
31 31 32 32 29 29 29 28 26 24 22 20 18 17 16 15 14 13 12 10 10 10 10 9 8 7 7 7 5 5 5 5 5 6 6 6 6 7 8 8 9 10 10 11
30 31 31 32 31 29 30 28 26 26 24 21 20 19 18 16 16 16 16 13 12 12 11 12 10 9 9 8 8 7 6 6 6 6 6 7 7 8 9 9 10 11 12 12
32 32 33 34 32 30 30 29 28 28 25 24 23 21 19 18 18 18 18 17 15 14 13 13 12 11 11 11 9 8 8 8 8 8 9 9 9 9 10 11 11 12 13 14
33 33 35 32 31 31 31 30 29 28 26 24 23 22 20 20 20 19 18 18 17 16 15 15 14 13 13 12 12 11 10 10 10 11 11 11 10 11 11 13 13 15 15 15
34 34 35 33 32 32 32 31 30 28 26 25 24 24 23 22 20 20 20 20 19 19 18 16 16 15 15 15 14 13 13 12 12 12 12 12 12 13 13 14 15 16 16 17
35 35 36 33 33 33 33 34 31 30 27 25 26 25 23 22 21 21 20 20 19 20 19 19 18 17 17 17 17 16 15 15 15 14 14 13 14 14 15 16 16 17 18 18
37 37 36 34 33 34 35 34 31 30 28 26 26 25 23 23 23 23 22 21 21 21 20 20 20 19 19 19 18 17 17 17 18 18 17 17 17 17 18 18 18 19 20 20
38 39 37 34 34 35 35 34 33 31 30 27 27 27 26 26 26 24 23 23 23 22 22 22 21 21 21 21 20 19 19 19 19 20 20 20 20 20 20 20 21 22 22 23
38 39 37 35 34 34 35 34 33 31 29 28 27 27 27 28 27 26 25 26 26 25 25 24 23 23 22 22 22 21 21 21 22 22 22 22 22 22 22 23 23 24 25 25
38 39 38 36 35 34 34 35 32 31 29 29 28 28 29 30 29 29 27 27 27 27 27 26 25 24 23 23 23 23 23 23 24 24 24 24 24 24 24 25 26 27 28 28
38 37 37 36 34 33 34 34 33 31 30 29 29 29 30 31 30 29 29 27 28 28 28 27 26 25 25 26 26 26 26 26 26 26 27 26 26 27 28 28 29 30 30 30
37 36 35 34 31 32 33 33 32 32 32 30 30 29 30 31 30 28 29 29 29 28 28 28 28 27 28 28 29 29 29 29 29 29 29 29 29 30 30 31 31 32 32 32
36 36 36 34 31 30 33 35 33 32 31 30 30 29 29 29 29 29 30 30 30 30 30 29 29 29 29 29 30 30 30 30 31 31 31 32 32 32 32 32 33 34 33 33
35 36 36 33 32 31 31 33 33 30 30 30 30 30 30 29 29 29 29 30 30 29 29 30 31 31 31 31 31 32 32 32 33 33 33 34 34 34 34 35 35 35 34 34
36 36 36 34 32 31 31 31 31 32 31 30 30 30 30 29 30 30 30 30 31 31 31 31 31 32 32 33 33 34 34 34 34 34 35 35 36 36 36 36 36 36 36 36
36 37 36 34 33 32 32 32 33 32 32 31 31 31 30 30 29 29 30 31 31 31 32 32 32 33 33 34 35 35 36 36 35 36 36 37 37 37 38 38 37 37 38 38
35 36 35 34 34 33 33 32 33 33 32 30 30 30 30 31 31 31 32 32 33 33 33 33 34 35 35 35 36 37 37 37 37 37 38 37 38 38 39 39 40 40 39 39
35 34 34 34 34 33 33 32 32 31 29 30 30 30 31 31 31 32 32 32 32 33 34 35 35 35 35 35 36 37 37 38 38 39 38 38 39 39 40 40 41 41 41 41
32 32 34 33 33 34 33 33 32 31 31 31 31 32 31 31 31 31 31 32 32 33 33 34 35 35 35 35 36 36 37 38 39 39 40 40 41 41 41 41 41 42 42 42
29 29 29 30 30 31 32 33 33 31 31 31 31 31 31 32 32 32 32 32 32 32 32 33 33 34 34 35 35 36 37 38 39 39 39 40 40 40 41 42 42 43 43 43
27 27 28 28 28 29 30 31 31 31 32 32 31 31 31 32 32 32 32 32 31 31 32 32 32 33 34 35 35 36 37 38 38 38 39 40 40 40 41 42 42 42 42 42
26 26 27 27 27 29 29 29 29 30 30 30 31 32 32 32 33 32 32 32 31 31 31 31 32 33 34 34 34 35 35 37 38 39 39 40 40 40 41 42 42 42 42 42
25 26 26 26 26 26 27 28 28 27 27 28 28 29 30 32 32 32 32 32 31 31 31 32 33 33 34 34 34 34 35 35 36 37 38 38 39 40 40 41 42 42 42 41
24 25 26 25 25 25 25 25 26 25 25 26 26 26 27 27 28 29 29 29 29 30 30 31 31 32 32 33 33 33 33 34 35 36 37 38 38 39 38 38 39 40 39 39
24 24 24 24 24 24 24 24 25 25 26 26 26 26 27 27 28 27 28 28 29 29 30 30 30 29 30 30 31 32 32 32 33 34 35 35 36 36 36 36 36 36 37 37
24 23 24 23 24 24 25 25 25 25 25 25 25 26 27 27 28 29 29 28 28 29 29 29 29 29 30 31 31 32 32 32 33 33 33 34 34 34 34 33 33 33 34 35
21 22 23 22 22 22 23 23 23 23 24 25 25 25 25 26 27 27 27 28 28 28 28 28 29 29 29 30 30 31 31 32 32 33 33 33 33 33 33 33 33 33 32 32
Wind_Direction
223 219 220 223 223 223 228 234 237 239 241 244 243 246 250 253 255 252 251 257 263 266 269 266 263 264 259 263 269 274 281 288 292 289 294 305 317 321 322 325 330 331 329 325
223 220 221 223 222 222 226 230 235 239 241 241 243 243 249 252 254 256 255 251 254 259 261 257 258 260 262 265 268 271 271 276 284 285 292 297 305 309 312 317 319 321 323 322
222 221 222 223 221 222 225 230 234 238 240 239 241 244 247 250 254 258 260 254 248 252 257 257 259 262 264 267 269 273 274 276 279 282 288 296 300 303 306 308 309 312 315 316
223 222 224 222 221 223 226 230 233 238 238 235 237 243 246 250 253 256 258 254 249 248 253 257 260 262 262 263 269 275 276 274 277 280 286 289 294 300 303 304 304 306 310 313
224 223 224 222 220 223 226 228 230 235 239 236 235 238 242 248 253 256 258 255 249 248 251 253 257 261 264 265 267 270 273 274 277 280 282 283 289 297 301 303 304 306 307 311
225 224 226 223 222 222 226 228 230 235 238 238 237 240 243 247 250 254 254 252 249 249 249 251 257 262 264 264 264 264 266 271 275 277 281 281 287 294 299 300 302 304 306 309
225 225 226 224 224 224 228 231 232 235 237 239 241 242 243 245 250 251 252 253 251 251 252 252 254 257 260 262 262 263 265 268 273 276 280 283 286 290 294 296 299 301 303 304
225 226 226 225 226 226 230 233 235 236 238 240 241 242 242 245 250 250 251 252 254 254 255 256 257 259 261 264 265 265 265 267 271 274 277 282 285 287 290 293 295 297 300 301
227 227 227 228 230 229 231 234 235 235 236 240 241 241 243 245 248 252 254 255 256 257 257 259 260 261 262 263 263 264 266 267 270 274 277 280 284 286 288 291 293 295 297 300
226 226 226 227 229 232 233 235 236 236 238 242 245 245 244 246 249 252 257 256 258 260 260 258 257 258 260 261 262 264 267 268 269 272 276 278 281 284 287 290 291 293 295 296
228 228 227 228 230 233 232 233 236 238 240 241 243 244 245 246 249 252 254 256 257 259 259 260 259 257 259 261 262 263 265 267 270 273 276 278 279 282 285 288 289 290 292 293
229 229 230 230 231 232 232 233 235 236 238 240 242 244 245 246 248 251 252 253 256 257 257 258 258 258 259 261 263 263 265 269 271 274 277 279 279 281 283 285 286 288 290 290
230 230 231 230 231 234 234 233 235 236 239 242 243 246 249 248 249 250 252 255 256 256 255 256 258 260 261 263 264 266 268 271 274 276 277 278 279 281 282 283 285 287 288 289
230 230 231 231 233 234 234 234 234 236 241 243 244 246 250 250 251 251 252 254 256 257 258 259 259 260 262 264 266 267 269 271 273 275 276 278 279 280 281 282 285 287 287 287
228 229 230 231 234 236 236 234 235 237 240 242 244 247 249 250 251 252 253 255 257 259 260 262 261 260 262 265 266 267 268 269 271 273 275 276 278 279 280 281 283 284 285 285
228 229 229 229 231 234 237 236 235 235 238 240 243 247 249 249 251 257 259 259 260 261 262 263 263 263 263 264 266 268 268 269 270 272 274 275 277 278 279 280 281 282 284 284
227 228 229 230 231 232 234 236 238 237 238 240 243 246 249 253 255 259 263 264 263 263 263 264 266 265 265 266 268 269 270 271 272 272 272 274 276 277 278 280 281 282 282 282
227 229 231 232 231 232 233 236 239 240 242 243 245 249 252 254 257 259 261 264 265 265 265 267 268 268 268 269 270 271 272 273 273 275 275 274 275 277 278 279 280 281 282 282
226 228 230 232 233 232 232 235 240 242 244 245 248 251 253 256 259 260 262 264 265 266 266 267 268 269 269 270 271 272 274 275 276 277 278 278 276 277 279 280 281 282 283 284
224 226 229 231 232 233 234 237 241 243 246 247 250 253 256 258 260 261 263 265 265 265 267 268 269 269 270 271 273 274 276 277 278 278 278 279 281 281 280 281 282 282 284 284
223 226 228 229 230 231 234 239 243 246 249 250 252 254 257 259 261 263 265 266 266 266 267 268 269 270 271 272 274 276 276 276 277 278 278 280 282 282 281 282 283 283 283 283
225 227 228 228 230 232 236 242 246 248 251 254 256 258 258 259 261 264 266 266 266 266 268 269 270 272 273 274 276 277 278 278 278 279 280 281 282 282 282 283 283 282 282 282
228 230 230 231 235 238 239 243 247 250 253 256 259 261 261 261 263 265 266 265 267 267 268 271 272 273 275 277 278 279 279 280 280 281 281 283 284 284 283 283 283 282 282 282
231 231 232 235 239 242 244 247 252 255 257 260 262 265 265 265 266 265 264 265 267 270 271 273 273 274 277 279 279 281 281 281 282 283 284 285 285 285 284 284 284 284 284 284
233 233 235 238 241 244 247 249 253 255 257 260 263 264 265 265 265 265 266 268 270 271 273 274 273 275 277 279 281 283 285 286 287 287 287 287 288 288 287 286 286 285 286 286
236 236 237 239 242 244 248 252 253 254 257 261 263 264 265 265 265 266 268 270 271 272 274 274 274 276 279 282 284 285 286 288 289 289 290 290 290 289 288 290 290 289 289 289
235 236 235 239 241 243 245 249 252 255 256 259 262 264 266 266 266 268 269 270 271 272 273 274 276 278 281 283 284 286 287 288 289 290 291 292 292 290 289 290 290 291 291 290
Height
5853 5858 5861 5865 5868 5871 5874 5877 5880 5883 5886 5888 5891 5892 5894 5895 5896 5897 5899 5899 5900 5901 5901 5901 5900 5900 5900 5900 5900 5899 5899 5898 5898 5897 5896 5895 5894 5893 5892 5891 5889 5887 5886 5884
5846 5851 5854 5857 5861 5866 5869 5872 5875 5878 5881 5884 5886 5887 5889 5890 5892 5893 5895 5896 5897 5897 5898 5898 5897 5898 5898 5898 5897 5896 5896 5895 5895 5894 5894 5893 5892 5891 5890 5888 5887 5885 5883 5881
5839 5843 5847 5851 5856 5860 5863 5866 5870 5872 5876 5878 5879 5881 5884 5886 5887 5889 5890 5891 5892 5893 5893 5894 5894 5894 5895 5894 5894 5894 5893 5892 5892 5892 5891 5890 5889 5888 5886 5885 5883 5882 5880 5878
5832 5837 5840 5848 5851 5854 5857 5861 5864 5866 5869 5872 5874 5877 5879 5880 5882 5883 5884 5885 5886 5888 5889 5890 5890 5890 5890 5890 5890 5890 5890 5889 5889 5888 5888 5887 5885 5884 5883 5882 5880 5878 5876 5874
5824 5828 5833 5840 5844 5848 5851 5854 5858 5860 5863 5866 5868 5870 5873 5875 5876 5878 5878 5880 5881 5882 5883 5884 5885 5886 5886 5886 5886 5886 5886 5885 5885 5884 5884 5883 5882 5880 5879 5877 5876 5874 5872 5870
5817 5821 5826 5834 5839 5841 5845 5847 5851 5854 5856 5859 5862 5864 5867 5869 5871 5872 5873 5874 5875 5876 5877 5878 5880 5880 5881 5881 5881 5881 5881 5880 5880 5879 5879 5878 5877 5876 5874 5873 5871 5869 5867 5865
5809 5813 5818 5827 5831 5834 5838 5842 5845 5847 5850 5853 5855 5858 5862 5863 5864 5866 5867 5868 5869 5870 5870 5872 5873 5874 5875 5876 5876 5876 5875 5875 5875 5874 5874 5873 5872 5871 5869 5868 5866 5864 5862 5860
5802 5807 5814 5819 5823 5827 5831 5834 5837 5840 5843 5846 5849 5851 5853 5856 5858 5859 5860 5862 5862 5863 5864 5865 5866 5867 5868 5869 5870 5870 5870 5870 5869 5868 5867 5867 5866 5864 5863 5861 5860 5858 5856 5854
5796 5802 5806 5810 5814 5819 5822 5826 5829 5833 5836 5838 5840 5843 5846 5848 5850 5852 5853 5854 5855 5856 5857 5858 5859 5860 5861 5862 5862 5863 5863 5863 5863 5862 5861 5860 5859 5858 5856 5855 5853 5852 5849 5847
5788 5792 5798 5803 5807 5811 5815 5819 5823 5827 5830 5831 5833 5835 5838 5840 5842 5844 5845 5847 5848 5849 5849 5848 5850 5852 5853 5854 5855 5856 5856 5856 5856 5855 5854 5853 5852 5850 5849 5848 5846 5844 5842 5839
5780 5786 5791 5796 5801 5805 5808 5811 5816 5820 5823 5824 5825 5827 5829 5832 5834 5835 5837 5839 5840 5841 5841 5841 5843 5844 5846 5847 5847 5848 5848 5848 5848 5847 5846 5845 5844 5843 5841 5840 5838 5836 5834 5831
5773 5779 5784 5789 5794 5797 5801 5804 5808 5811 5815 5816 5817 5818 5819 5822 5825 5827 5829 5831 5832 5833 5833 5834 5835 5836 5837 5838 5838 5839 5839 5839 5839 5839 5838 5837 5835 5834 5832 5831 5829 5827 5825 5822
5766 5771 5776 5782 5786 5790 5793 5796 5800 5803 5806 5809 5810 5811 5812 5815 5817 5819 5821 5822 5824 5825 5826 5826 5826 5827 5829 5830 5830 5830 5830 5830 5830 5829 5829 5827 5826 5824 5823 5821 5819 5817 5815 5813
5759 5764 5769 5775 5779 5782 5785 5789 5792 5795 5798 5800 5802 5803 5805 5807 5809 5811 5812 5813 5814 5815 5816 5817 5818 5819 5820 5821 5821 5821 5821 5821 5820 5820 5819 5817 5816 5815 5813 5811 5809 5807 5805 5803
5751 5757 5762 5767 5771 5775 5778 5781 5785 5788 5790 5792 5793 5795 5797 5799 5800 5802 5803 5804 5805 5806 5807 5808 5809 5809 5810 5811 5811 5811 5811 5811 5810 5810 5808 5807 5806 5804 5802 5801 5799 5797 5795 5793
5743 5748 5753 5759 5763 5766 5770 5774 5777 5779 5782 5784 5785 5787 5788 5790 5791 5792 5793 5795 5796 5797 5798 5799 5799 5799 5799 5800 5800 5801 5801 5800 5800 5799 5798 5796 5795 5793 5791 5790 5788 5786 5784 5782
5735 5740 5746 5751 5755 5758 5762 5765 5768 5771 5773 5775 5777 5778 5780 5782 5783 5785 5786 5787 5788 5789 5789 5790 5790 5790 5790 5790 5790 5790 5789 5789 5789 5787 5785 5784 5783 5781 5779 5778 5776 5774 5773 5770
5728 5732 5737 5742 5746 5750 5754 5757 5760 5762 5764 5767 5769 5770 5772 5774 5775 5776 5777 5778 5778 5779 5780 5780 5780 5780 5780 5780 5780 5779 5779 5778 5777 5775 5774 5772 5771 5769 5767 5766 5764 5762 5760 5758
5720 5725 5729 5734 5738 5741 5745 5749 5751 5754 5756 5758 5760 5762 5764 5765 5767 5767 5768 5768 5769 5770 5770 5770 5770 5770 5770 5769 5769 5769 5768 5767 5766 5764 5763 5761 5759 5757 5755 5753 5752 5750 5748 5745
5712 5717 5721 5725 5729 5732 5737 5741 5743 5745 5748 5750 5752 5754 5755 5757 5758 5758 5759 5759 5760 5760 5760 5760 5760 5760 5760 5759 5759 5758 5757 5756 5754 5752 5751 5749 5747 5745 5743 5741 5739 5737 5735 5733
5706 5710 5714 5718 5722 5725 5729 5732 5735 5737 5739 5741 5743 5745 5746 5747 5748 5749 5749 5750 5750 5750 5751 5751 5750 5750 5750 5749 5749 5747 5746 5744 5742 5740 5738 5737 5735 5733 5731 5728 5726 5724 5722 5720
5700 5704 5708 5712 5715 5719 5721 5724 5726 5728 5730 5732 5734 5735 5737 5738 5738 5739 5740 5740 5740 5740 5740 5740 5740 5740 5739 5738 5737 5736 5734 5732 5730 5728 5726 5724 5722 5721 5718 5716 5714 5712 5709 5708
5695 5699 5702 5706 5708 5711 5713 5716 5719 5721 5722 5724 5725 5727 5727 5728 5728 5729 5731 5731 5731 5731 5731 5731 5730 5729 5729 5727 5726 5724 5723 5720 5718 5716 5714 5712 5710 5708 5706 5703 5701 5699 5696 5694
5690 5693 5696 5698 5701 5703 5706 5708 5711 5713 5714 5716 5717 5717 5718 5719 5720 5720 5721 5721 5721 5722 5721 5721 5720 5719 5718 5716 5715 5713 5711 5709 5707 5705 5703 5700 5698 5695 5693 5691 5688 5686 5684 5682
5684 5686 5688 5689 5694 5697 5699 5702 5704 5705 5707 5708 5709 5709 5710 5711 5712 5712 5712 5712 5712 5712 5712 5711 5710 5709 5707 5706 5704 5703 5701 5698 5696 5694 5691 5689 5686 5684 5681 5679 5677 5674 5672 5670
5678 5681 5684 5686 5689 5691 5693 5695 5696 5698 5699 5700 5701 5701 5701 5702 5702 5703 5703 5703 5703 5703 5702 5701 5700 5699 5698 5696 5695 5693 5691 5688 5686 5683 5681 5678 5676 5673 5671 5668 5666 5664 5662 5660
5672 5675 5678 5680 5682 5684 5686 5688 5689 5691 5691 5692 5692 5693 5693 5693 5693 5694 5694 5694 5694 5694 5693 5692 5691 5690 5688 5687 5685 5683 5681 5679 5677 5674 5671 5668 5666 5663 5661 5658 5656 5654 5651 5649